KAL940 RKSI-RKPC

Flight info

Callsign KAL940
Flight time N/A
Altitude 26000
Route BOPTA3H/16L BOPTA Z51 BEDES Y711 DOTOL DOTOL2P
Aircraft B738/M-SDE2E3FGHIRWXY/LB1

Departure

Time N/A
Airport Incheon International Airport (RKSI)

Arrival

Time 2026-05-05 03:57
Airport Jeju International Airport (RKPC)
Time Latitude Longitude Altitude Speed Heading
2026-05-05 03:42 34.03589 126.58752 11469 ft 299 kts 186°
2026-05-05 03:42 34.01527 126.58530 11058 ft 298 kts 188°
2026-05-05 03:42 33.99520 126.58028 10639 ft 294 kts 201°
2026-05-05 03:42 33.97745 126.56796 10295 ft 288 kts 218°
2026-05-05 03:43 33.96241 126.55283 10114 ft 278 kts 221°
2026-05-05 03:43 33.94818 126.53786 9936 ft 269 kts 221°
2026-05-05 03:43 33.93413 126.52341 9590 ft 268 kts 220°
2026-05-05 03:43 33.91966 126.50899 9236 ft 267 kts 219°
2026-05-05 03:44 33.90535 126.49503 9002 ft 263 kts 219°
2026-05-05 03:44 33.89099 126.48113 8993 ft 266 kts 219°
2026-05-05 03:44 33.87653 126.46717 8896 ft 269 kts 219°
2026-05-05 03:44 33.86214 126.45326 8612 ft 267 kts 219°
2026-05-05 03:45 33.84757 126.43917 8271 ft 265 kts 219°
2026-05-05 03:45 33.83335 126.42542 7938 ft 263 kts 219°
2026-05-05 03:45 33.81911 126.41164 7601 ft 261 kts 219°
2026-05-05 03:45 33.80502 126.39803 7266 ft 259 kts 219°
2026-05-05 03:46 33.79114 126.38465 7001 ft 256 kts 219°
2026-05-05 03:46 33.77716 126.37115 6995 ft 258 kts 219°
2026-05-05 03:46 33.76318 126.35764 6989 ft 260 kts 219°
2026-05-05 03:46 33.74920 126.34412 6988 ft 256 kts 219°
2026-05-05 03:47 33.73559 126.33063 6814 ft 254 kts 219°
2026-05-05 03:47 33.72207 126.31722 6580 ft 249 kts 219°
2026-05-05 03:47 33.70866 126.30440 6355 ft 245 kts 212°
2026-05-05 03:47 33.69327 126.29584 6138 ft 244 kts 198°
2026-05-05 03:48 33.67688 126.28982 5914 ft 243 kts 196°
2026-05-05 03:48 33.66069 126.28426 5690 ft 242 kts 196°
2026-05-05 03:48 33.64456 126.27875 5467 ft 241 kts 196°
2026-05-05 03:48 33.62834 126.27322 5241 ft 240 kts 196°
2026-05-05 03:49 33.61239 126.26776 5016 ft 239 kts 196°
2026-05-05 03:49 33.59634 126.26228 4789 ft 238 kts 196°
2026-05-05 03:49 33.58040 126.25682 4563 ft 237 kts 196°
2026-05-05 03:49 33.56466 126.25142 4340 ft 236 kts 196°
2026-05-05 03:50 33.54894 126.24599 4115 ft 235 kts 196°
2026-05-05 03:50 33.53317 126.24052 3993 ft 232 kts 196°
2026-05-05 03:50 33.51767 126.23511 3994 ft 235 kts 196°
2026-05-05 03:50 33.50186 126.22958 3992 ft 234 kts 196°
2026-05-05 03:51 33.48634 126.22423 3992 ft 234 kts 194°
2026-05-05 03:51 33.47028 126.22216 3979 ft 224 kts 170°
2026-05-05 03:51 33.45673 126.22955 3997 ft 212 kts 140°
2026-05-05 03:51 33.44759 126.24253 3992 ft 199 kts 124°
2026-05-05 03:52 33.44091 126.25670 3991 ft 193 kts 121°
2026-05-05 03:52 33.43455 126.27088 3986 ft 194 kts 121°
2026-05-05 03:52 33.42814 126.28505 3743 ft 191 kts 121°
2026-05-05 03:52 33.42255 126.29866 3591 ft 180 kts 111°
2026-05-05 03:53 33.42156 126.31332 3320 ft 181 kts 77°
2026-05-05 03:53 33.42700 126.32692 3053 ft 180 kts 61°
2026-05-05 03:53 33.43340 126.33978 2702 ft 178 kts 62°
2026-05-05 03:53 33.43962 126.35223 2433 ft 173 kts 60°
2026-05-05 03:54 33.44574 126.36401 2229 ft 158 kts 60°
2026-05-05 03:54 33.45145 126.37498 1978 ft 154 kts 61°
2026-05-05 03:54 33.45703 126.38577 1802 ft 152 kts 61°
2026-05-05 03:54 33.46258 126.39648 1530 ft 152 kts 59°
2026-05-05 03:55 33.46833 126.40693 1327 ft 149 kts 58°
2026-05-05 03:55 33.47384 126.41754 1121 ft 146 kts 61°
2026-05-05 03:55 33.47897 126.42813 943 ft 149 kts 60°
2026-05-05 03:55 33.48418 126.43865 746 ft 145 kts 58°
2026-05-05 03:56 33.48946 126.44855 539 ft 138 kts 56°
2026-05-05 03:56 33.49462 126.45817 381 ft 139 kts 57°
2026-05-05 03:56 33.49968 126.46814 170 ft 138 kts 57°
2026-05-05 03:56 33.50431 126.47707 126 ft 105 kts 59°
2026-05-05 03:57 33.50722 126.48275 126 ft 55 kts 61°
2026-05-05 03:57 33.50856 126.48554 127 ft 25 kts 67°
2026-05-05 03:57 33.50884 126.48685 127 ft 12 kts 77°
2026-05-05 03:57 33.50887 126.48791 127 ft 12 kts 89°
2026-05-05 03:58 33.50875 126.48876 127 ft 9 kts 130°
2026-05-05 03:58 33.50831 126.48866 127 ft 7 kts 239°
2026-05-05 03:58 33.50804 126.48813 127 ft 7 kts 238°
2026-05-05 03:58 33.50776 126.48763 127 ft 6 kts 217°
2026-05-05 03:59 33.50732 126.48772 127 ft 6 kts 148°
2026-05-05 03:59 33.50693 126.48801 127 ft 6 kts 148°
2026-05-05 03:59 33.50655 126.48830 127 ft 6 kts 145°
2026-05-05 03:59 33.50628 126.48868 127 ft 5 kts 136°
2026-05-05 04:00 33.50594 126.48895 127 ft 5 kts 148°
2026-05-05 04:00 33.50569 126.48913 127 ft 1 kts 148°
2026-05-05 04:00 33.50564 126.48916 127 ft 0 kts 148°